Location: Silverdale
(47.6506°N, 122.6941°W)
Time: 05:47:15
(UTC+00:00)

Tiros 1 despin weight - Pass Details

Date: 09 October 2022
Orbit: 590 x 637 km, 48.2° (Epoch: 09 December)

Event Time Altitude Azimuth Distance (km) Brightness Sun altitude
Rises 03:52:52 0° 284° (WNW) 2,879 ? -23.7°
Reaches altitude 10° 03:55:29 10° 271° (W) 1,980 ? -24.1°
Maximum altitude 03:59:10 24° 217° (SW) 1,280 ? -24.7°
Enters shadow 03:59:58 23° 200° (SSW) 1,322 ? -24.8°
